Location: Maiden
(35.5760°N, 81.2120°W)
Time: 03:17:36
(UTC-04:00)

Cosmos 1666 Rocket - Pass Details

Date: 02 August 2020
Orbit: 603 x 633 km, 82.5° (Epoch: 11 August)

Event Time Altitude Azimuth Distance (km) Brightness Sun altitude
Exits shadow 22:47:41 44° 41° (NE) 846 4.2 -24.4°
Drops below altitude 10° 22:50:51 10° 15° (NNE) 1,954 6.5 -24.8°
Sets 22:53:05 0° 12° (NNE) 2,861 7.5 -25.1°
